EN

Hourly Weather Lac-Mégantic

Today, 6 August, Friday

Time Temperature Precipitation Wind Pressure Humidity
00:00 +15°C° 0 mm 1 mps 722 mmHg 96%
01:00 +15°C° 0 mm 1 mps 722 mmHg 96%
02:00 +15°C° 0 mm 1 mps 722 mmHg 96%
03:00 +15°C° 0 mm 1 mps 722 mmHg 96%
04:00 +14°C° 0 mm 1 mps 722 mmHg 95%
05:00 +16°C° 0 mm 1 mps 723 mmHg 90%
06:00 +18°C° 0 mm 1 mps 723 mmHg 85%
07:00 +20°C° 0 mm 1 mps 723 mmHg 79%
08:00 +21°C° 0 mm 2 mps 724 mmHg 69%
09:00 +24°C° 0 mm 2 mps 724 mmHg 59%
10:00 +27°C° 0 mm 3 mps 724 mmHg 48%
11:00 +27°C° 0 mm 3 mps 724 mmHg 46%
12:00 +28°C° 0 mm 3 mps 723 mmHg 43%
13:00 +29°C° 0 mm 3 mps 723 mmHg 40%
14:00 +29°C° 0 mm 3 mps 723 mmHg 41%
15:00 +29°C° 0 mm 3 mps 723 mmHg 42%
16:00 +28°C° 0 mm 3 mps 723 mmHg 43%
17:00 +26°C° 0 mm 2 mps 722 mmHg 54%
18:00 +23°C° 0 mm 1 mps 722 mmHg 66%
19:00 +20°C° 0 mm 1 mps 722 mmHg 77%
20:00 +20°C° 0 mm 1 mps 722 mmHg 76%
21:00 +20°C° 0 mm 1 mps 722 mmHg 76%
22:00 +19°C° 0 mm 1 mps 722 mmHg 75%
23:00 +19°C° 0 mm 1 mps 722 mmHg 73%

Tomorrow, 7 August, Saturday

Time Temperature Precipitation Wind Pressure Humidity
00:00 +18°C° 0 mm 2 mps 722 mmHg 72%
01:00 +19°C° 0 mm 2 mps 722 mmHg 70%
02:00 +18°C° 0 mm 2 mps 721 mmHg 75%
03:00 +17°C° 0 mm 2 mps 721 mmHg 80%
04:00 +16°C° 0 mm 1 mps 721 mmHg 85%
05:00 +18°C° 0 mm 2 mps 721 mmHg 80%
06:00 +19°C° 0 mm 2 mps 721 mmHg 76%
07:00 +21°C° 0 mm 2 mps 721 mmHg 71%
08:00 +24°C° 0 mm 2 mps 721 mmHg 63%
09:00 +25°C° 0 mm 3 mps 721 mmHg 55%
10:00 +27°C° 0 mm 4 mps 721 mmHg 48%
11:00 +28°C° 0 mm 4 mps 721 mmHg 48%
12:00 +28°C° 0 mm 4 mps 721 mmHg 47%
13:00 +28°C° 0 mm 5 mps 721 mmHg 47%
14:00 +27°C° 0.5 mm 4 mps 721 mmHg 60%
15:00 +25°C° 0.5 mm 4 mps 720 mmHg 73%
16:00 +22°C° 0.5 mm 3 mps 720 mmHg 85%
17:00 +21°C° 1 mm 3 mps 720 mmHg 89%
18:00 +20°C° 1 mm 2 mps 720 mmHg 93%
19:00 +19°C° 1 mm 1 mps 720 mmHg 97%
20:00 +19°C° 0.6 mm 1 mps 720 mmHg 97%
21:00 +19°C° 0.6 mm 1 mps 720 mmHg 97%
22:00 +19°C° 0.6 mm 1 mps 720 mmHg 98%
23:00 +18°C° 0.1 mm 1 mps 720 mmHg 98%

Day after tomorrow, 8 August, Sunday

Time Temperature Precipitation Wind Pressure Humidity
00:00 +18°C° 0.1 mm 1 mps 720 mmHg 98%
01:00 +18°C° 0.1 mm 1 mps 720 mmHg 99%
02:00 +18°C° 0 mm 1 mps 720 mmHg 99%
03:00 +18°C° 0 mm 1 mps 720 mmHg 99%
04:00 +18°C° 0 mm 1 mps 721 mmHg 99%
05:00 +19°C° 0.1 mm 1 mps 721 mmHg 99%
06:00 +19°C° 0.1 mm 1 mps 721 mmHg 98%
07:00 +19°C° 0.1 mm 1 mps 722 mmHg 98%
08:00 +19°C° 0.1 mm 1 mps 722 mmHg 94%
09:00 +20°C° 0.1 mm 1 mps 723 mmHg 90%
10:00 +19°C° 0.1 mm 2 mps 723 mmHg 86%
11:00 +21°C° 0 mm 2 mps 723 mmHg 77%
12:00 +23°C° 0 mm 2 mps 724 mmHg 68%
13:00 +24°C° 0 mm 2 mps 724 mmHg 59%
14:00 +25°C° 0 mm 1 mps 724 mmHg 55%
15:00 +25°C° 0 mm 1 mps 724 mmHg 51%
16:00 +26°C° 0 mm 1 mps 724 mmHg 47%
17:00 +24°C° 0 mm 1 mps 724 mmHg 56%
18:00 +21°C° 0 mm 1 mps 724 mmHg 66%
19:00 +19°C° 0 mm 1 mps 724 mmHg 75%
20:00 +18°C° 0 mm 1 mps 724 mmHg 77%
21:00 +16°C° 0 mm 1 mps 725 mmHg 78%
22:00 +16°C° 0 mm 1 mps 725 mmHg 80%
23:00 +15°C° 0 mm 1 mps 725 mmHg 84%

9 August, Monday

Time Temperature Precipitation Wind Pressure Humidity
00:00 +15°C° 0 mm 1 mps 725 mmHg 88%
01:00 +14°C° 0 mm 1 mps 725 mmHg 92%
02:00 +15°C° 0 mm 2 mps 726 mmHg 92%
03:00 +15°C° 0 mm 2 mps 726 mmHg 92%
04:00 +16°C° 0 mm 2 mps 726 mmHg 92%
05:00 +16°C° 0 mm 2 mps 726 mmHg 91%
06:00 +17°C° 0 mm 2 mps 727 mmHg 90%
07:00 +17°C° 0 mm 2 mps 727 mmHg 89%
08:00 +19°C° 0 mm 2 mps 727 mmHg 83%
09:00 +20°C° 0 mm 3 mps 727 mmHg 78%
10:00 +21°C° 0 mm 3 mps 727 mmHg 72%
11:00 +22°C° 0 mm 3 mps 727 mmHg 69%
12:00 +22°C° 0 mm 3 mps 727 mmHg 65%
13:00 +24°C° 0 mm 3 mps 727 mmHg 62%
14:00 +25°C° 0 mm 3 mps 727 mmHg 61%
15:00 +25°C° 0 mm 3 mps 727 mmHg 61%
16:00 +25°C° 0 mm 3 mps 726 mmHg 60%
17:00 +24°C° 0 mm 2 mps 726 mmHg 67%
18:00 +21°C° 0 mm 2 mps 726 mmHg 75%
19:00 +19°C° 0 mm 2 mps 726 mmHg 82%
20:00 +18°C° 0 mm 2 mps 726 mmHg 87%
21:00 +17°C° 0 mm 2 mps 726 mmHg 92%
22:00 +16°C° 0 mm 2 mps 726 mmHg 97%
23:00 +16°C° 0 mm 2 mps 726 mmHg 97%

10 August, Tuesday

Time Temperature Precipitation Wind Pressure Humidity
00:00 +16°C° 0 mm 2 mps 725 mmHg 98%
01:00 +15°C° 0 mm 2 mps 725 mmHg 98%
02:00 +15°C° 0 mm 2 mps 725 mmHg 98%
03:00 +15°C° 0 mm 2 mps 725 mmHg 98%
04:00 +15°C° 0 mm 2 mps 725 mmHg 98%
05:00 +17°C° 0 mm 2 mps 725 mmHg 95%
06:00 +18°C° 0 mm 2 mps 725 mmHg 92%
07:00 +19°C° 0 mm 2 mps 725 mmHg 88%
08:00 +21°C° 0 mm 3 mps 725 mmHg 81%
09:00 +22°C° 0 mm 3 mps 724 mmHg 73%
10:00 +25°C° 0 mm 3 mps 724 mmHg 66%
11:00 +25°C° 0 mm 3 mps 724 mmHg 66%
12:00 +26°C° 0 mm 3 mps 723 mmHg 66%
13:00 +26°C° 0 mm 3 mps 723 mmHg 66%
14:00 +26°C° 0.1 mm 3 mps 722 mmHg 69%
15:00 +26°C° 0.1 mm 4 mps 722 mmHg 72%
16:00 +26°C° 0.1 mm 4 mps 721 mmHg 75%
17:00 +25°C° 0.2 mm 4 mps 721 mmHg 78%
18:00 +25°C° 0.2 mm 3 mps 721 mmHg 81%
19:00 +24°C° 0.2 mm 3 mps 721 mmHg 83%
20:00 +22°C° 0.1 mm 3 mps 721 mmHg 86%
21:00 +22°C° 0.1 mm 3 mps 721 mmHg 89%
22:00 +21°C° 0.1 mm 3 mps 721 mmHg 92%
23:00 +21°C° 0.1 mm 3 mps 721 mmHg 93%

11 August, Wednesday

Time Temperature Precipitation Wind Pressure Humidity
00:00 +21°C° 0.1 mm 2 mps 721 mmHg 93%
01:00 +21°C° 0.1 mm 2 mps 720 mmHg 94%
02:00 +21°C° 0 mm 2 mps 720 mmHg 94%
03:00 +21°C° 0 mm 2 mps 720 mmHg 95%
04:00 +20°C° 0 mm 2 mps 720 mmHg 96%
05:00 +21°C° 0 mm 2 mps 720 mmHg 92%
06:00 +23°C° 0 mm 2 mps 721 mmHg 89%
07:00 +24°C° 0 mm 2 mps 721 mmHg 86%
08:00 +26°C° 0 mm 2 mps 721 mmHg 78%
09:00 +28°C° 0 mm 3 mps 721 mmHg 70%
10:00 +30°C° 0 mm 3 mps 721 mmHg 61%
11:00 +32°C° 0 mm 4 mps 721 mmHg 58%
12:00 +33°C° 0 mm 4 mps 721 mmHg 55%
13:00 +34°C° 0 mm 4 mps 721 mmHg 52%
14:00 +34°C° 0 mm 4 mps 721 mmHg 54%
15:00 +34°C° 0 mm 4 mps 721 mmHg 55%
16:00 +34°C° 0 mm 4 mps 721 mmHg 56%
17:00 +30°C° 0 mm 3 mps 721 mmHg 66%
18:00 +28°C° 0 mm 2 mps 720 mmHg 76%
19:00 +26°C° 0 mm 1 mps 720 mmHg 86%
20:00 +26°C° 0 mm 1 mps 720 mmHg 86%
21:00 +25°C° 0 mm 1 mps 720 mmHg 87%
22:00 +25°C° 0 mm 1 mps 721 mmHg 88%
23:00 +24°C° 0.1 mm 1 mps 721 mmHg 89%
Show more